[[{"header":{"parameterUnit":"m.s-1","parameterCategory":1,"la1":30.2991,"la2":30.254,"lo1":-89.0895,"lo2":-89.0444,"dy":0.0017,"dx":0.0017,"nx":28,"ny":28,"refTime":"2024-07-24T03:00:00:Z","depth":0,"parameterNumber":2,"parameterNumberName":"U-component_of_WINDS"},"data":[0,0,0,0,0,0,0,0,0,0,0,0,0,0,0,0,0,0,0,0,0,0,0,0,0,0,0,0,0,0,0,0,0,0,0,0,0,0,0,0,0,0,0,0,0,0,0,0,0,0,0,0,0,0,0,0,0,0,3.3114,3.3112,0,3.2951,3.2949,3.2947,3.2774,3.2772,3.277,3.2767,3.2589,3.2587,3.2584,0,0,0,0,0,0,0,0,0,0,0,0,0,3.3267,3.3265,3.3114,3.3112,3.311,3.2951,3.2949,3.2947,3.2775,3.2772,3.2769,3.2766,3.259,3.2587,3.2584,0,0,0,0,0,0,0,0,0,0,0,0,0,3.3162,3.3264,3.3114,3.3005,3.2994,3.2952,3.2949,3.2946,3.2775,3.2772,3.2768,3.2765,3.2591,3.2587,3.2584,3.2632,0,0,3.2572,3.257,0,0,0,0,0,0,0,0,3.3168,3.3156,3.3023,3.3013,3.3,3.288,3.2937,3.284,3.2776,3.2858,3.2767,3.2763,3.2688,3.2676,3.2653,3.2624,3.2616,3.2572,3.2569,3.2568,3.2567,0,0,0,0,0,0,0,3.3175,3.3162,3.3049,3.3022,3.3007,3.2961,3.2942,3.2918,3.2795,3.2851,3.2838,3.2821,3.2681,3.2657,3.2647,3.2614,3.2572,3.2568,3.2566,3.2565,3.2614,3.2618,0,0,0,0,0,0,3.3201,3.3169,3.3054,3.3044,3.3077,3.2962,3.294,3.2922,3.2795,3.2772,3.2825,3.2814,3.2665,3.2652,3.2641,3.2688,3.2568,3.2564,3.2562,3.2611,3.2615,3.2619,0,0,0,0,0,0,3.3205,3.3192,3.3061,3.3103,3.3083,3.2963,3.2943,3.292,3.2896,3.2775,3.2751,3.2824,3.2662,3.2646,3.2636,3.268,3.2563,3.2559,3.2606,3.2612,3.2617,3.2785,0,0,0,0,0,0,3.321,3.3195,3.3214,3.3105,3.3082,3.3063,3.2946,3.292,3.2892,3.2876,3.2768,3.2746,3.2658,3.2643,3.2632,3.2672,3.2556,3.2602,3.2609,3.2615,3.2775,3.2795,3.2813,0,0,0,0,0,3.3216,3.3266,3.3216,3.3203,3.3104,3.3066,3.3052,3.2952,3.2896,3.2913,3.2835,3.275,3.2677,3.2643,3.263,3.267,3.2599,3.2607,3.2615,3.2766,3.2791,3.2813,0,0,0,0,0,0,3.3379,3.3249,3.3193,3.321,3.3151,3.3037,3.3056,3.2982,3.2935,3.2922,3.2796,3.2773,3.2778,3.2722,3.2687,3.2709,3.2625,3.2631,3.2745,3.2768,3.2787,3.2799,3.2553,0,0,0,0,0,3.3418,3.3401,3.3287,3.3313,3.3286,3.3177,3.3156,3.3085,3.3017,3.299,3.2911,3.2845,3.2807,3.2784,3.2743,3.2766,3.2739,3.2787,3.2806,3.2822,3.2828,3.2835,3.2854,3.2645,3.2645,3.2645,0,0,3.3496,3.3423,3.3419,3.3344,3.3289,3.3272,3.3157,3.3142,3.3127,3.2986,3.2973,3.2914,3.2831,3.2839,3.2838,3.2792,3.288,3.2832,3.2846,3.2843,3.2845,3.2865,3.2883,3.2651,3.265,3.2649,0,0,3.3629,3.3574,3.3589,3.3538,3.3459,3.3386,3.339,3.3287,3.3243,3.3229,3.3123,3.3101,3.3039,3.2985,3.2949,3.3064,3.2982,3.3053,3.3151,3.316,3.3176,3.319,3.3229,3.3245,3.306,3.306,3.306,0,3.3735,3.3708,3.3605,3.3598,3.3567,3.3443,3.3456,3.341,3.332,3.33,3.3252,3.3171,3.3107,3.31,3.3128,3.3104,3.3102,3.3064,3.3183,3.3196,3.3207,3.3243,3.3258,3.3069,3.3068,3.3067,3.3066,0,3.3842,3.3824,3.3845,3.3766,3.3737,3.374,3.3635,3.3617,3.3549,3.348,3.3466,3.3386,3.3325,3.3318,3.3249,3.33,3.3275,3.3207,3.312,3.3238,3.3269,3.3282,3.3082,3.3079,3.3076,3.3074,0,0,3.4072,3.3937,3.3947,3.3909,3.3813,3.3796,3.3792,3.3737,3.3724,3.3666,3.3658,3.3609,3.3545,3.3505,3.3429,3.3436,3.3531,3.3366,3.3362,3.3398,3.3579,3.3631,3.3649,3.3477,3.3479,3.3481,3.3586,0,3.4187,3.4177,3.4085,3.41,3.4081,3.3964,3.396,3.3899,3.3835,3.3807,3.3733,3.3701,3.3621,3.3595,3.3598,3.3519,3.3565,3.351,3.3464,3.3464,3.3488,3.3665,3.3719,3.3822,3.3598,3.36,3.3601,0,3.432,3.4275,3.429,3.4194,3.4183,3.4182,3.4124,3.41,3.4027,3.3979,3.3936,3.3851,3.3837,3.3758,3.3735,3.37,3.3675,3.3634,3.3635,3.3625,3.3539,3.3659,3.3852,3.3868,3.362,3.3618,3.3617,0,3.4486,3.4428,3.4429,3.44,3.4289,3.4291,3.4244,3.4168,3.4141,3.4089,3.4069,3.4015,3.3985,3.3943,3.3845,3.3797,3.3833,3.3745,3.3789,3.3792,3.3801,3.3801,3.3992,3.3789,3.3788,3.3788,3.3788,0,3.4623,3.4636,3.4502,3.4502,3.4513,3.4405,3.4417,3.4358,3.4292,3.4276,3.417,3.4157,3.4029,3.4,3.3923,3.3914,3.3901,3.386,3.3839,3.3869,3.3874,3.385,3.3839,3.3792,3.3791,3.379,3.379,0,3.4809,3.4719,3.4713,3.4609,3.4583,3.4596,3.4505,3.4499,3.443,3.4411,3.44,3.4289,3.425,3.4148,3.4081,3.4029,3.4041,3.4003,3.4067,3.4053,3.4103,3.41,3.4283,3.4301,3.4089,3.4091,3.4093,0,3.4902,3.491,3.4809,3.4793,3.4752,3.4727,3.4699,3.4594,3.4569,3.4488,3.4491,3.4444,3.4401,3.4343,3.4253,3.4201,3.416,3.4228,3.4151,3.418,3.4158,3.4159,3.4158,3.4244,3.4247,3.425,3.4251,0,3.5076,3.5032,3.4999,3.4952,3.4923,3.4879,3.4829,3.4821,3.4701,3.4678,3.4639,3.4606,3.454,3.4493,3.4427,3.4374,3.4292,3.4277,3.4284,3.4314,3.435,3.433,3.4111,3.4273,3.427,3.4269,3.4268,3.4267,3.5217,3.5218,3.5148,3.5115,3.5067,3.5023,3.5013,3.4943,3.491,3.4851,3.4789,3.4756,3.4681,3.4585,3.4538,3.4507,3.4465,3.4476,3.4478,3.4482,3.4495,3.4358,3.4495,3.4494,3.4493,3.4493,3.4492,0,3.5385,3.5334,3.5305,3.524,3.5214,3.5144,3.5084,3.5066,3.504,3.4979,3.494,3.4894,3.4849,3.4757,3.4703,3.4696,3.4657,3.4685,3.4683,3.4672,3.4537,3.4536,3.4718,3.4718,3.4718,3.4718,3.4718,3.4717,3.5469,3.5468,3.5416,3.5389,3.5336,3.5307,3.5279,3.5237,3.5188,3.5143,3.5107,3.5049,3.4975,3.4914,3.4869,3.4842,3.4826,3.4866,3.4828,3.4703,3.4682,3.4661,3.4659,3.4864,3.4864,3.4965,3.4966,3.4966]},{"header":{"parameterUnit":"m.s-1","parameterCategory":1,"la1":30.2991,"la2":30.254,"lo1":-89.0895,"lo2":-89.0444,"dy":0.0017,"dx":0.0017,"nx":28,"ny":28,"refTime":"2024-07-24T03:00:00:Z","depth":0,"parameterNumber":3,"parameterNumberName":"V-component_of_WINDS"},"data":[0,0,0,0,0,0,0,0,0,0,0,0,0,0,0,0,0,0,0,0,0,0,0,0,0,0,0,0,0,0,0,0,0,0,0,0,0,0,0,0,0,0,0,0,0,0,0,0,0,0,0,0,0,0,0,0,0,0,0.8975,0.8976,0,0.9117,0.9118,0.912,0.9183,0.9183,0.9183,0.9182,0.9325,0.9329,0.9332,0,0,0,0,0,0,0,0,0,0,0,0,0,0.8753,0.8757,0.8974,0.8976,0.8978,0.9116,0.9118,0.912,0.9183,0.9183,0.9183,0.9182,0.9323,0.9328,0.9333,0,0,0,0,0,0,0,0,0,0,0,0,0,0.8868,0.8758,0.8974,0.9026,0.9032,0.9116,0.9118,0.9121,0.9183,0.9183,0.9182,0.9182,0.9322,0.9328,0.9333,0.9375,0,0,0.9352,0.9354,0,0,0,0,0,0,0,0,0.8861,0.8876,0.9017,0.9023,0.903,0.9132,0.9093,0.9206,0.9183,0.9126,0.9182,0.9182,0.9261,0.9271,0.9299,0.9382,0.9388,0.9352,0.9356,0.9358,0.936,0,0,0,0,0,0,0,0.8853,0.887,0.9031,0.9019,0.9027,0.9041,0.9057,0.9114,0.9193,0.9131,0.9136,0.9152,0.9264,0.9293,0.9302,0.939,0.9352,0.9357,0.9361,0.9363,0.9513,0.9514,0,0,0,0,0,0,0.8837,0.8863,0.9026,0.9035,0.8943,0.9045,0.9063,0.9099,0.9192,0.9206,0.9152,0.9154,0.9283,0.9295,0.9308,0.9363,0.9358,0.9364,0.9367,0.9513,0.9514,0.9514,0,0,0,0,0,0,0.8832,0.8851,0.902,0.895,0.8973,0.9049,0.9089,0.9102,0.9131,0.9208,0.9222,0.9167,0.9283,0.9299,0.9358,0.9368,0.9366,0.9372,0.9513,0.9513,0.9514,0.9472,0,0,0,0,0,0,0.8826,0.8849,0.8867,0.895,0.8976,0.907,0.909,0.9105,0.9141,0.9146,0.9226,0.9239,0.9284,0.9349,0.9364,0.9376,0.9376,0.9512,0.9513,0.9514,0.9473,0.9472,0.947,0,0,0,0,0,0.8818,0.8849,0.8868,0.8887,0.9001,0.907,0.9085,0.9137,0.9142,0.916,0.9209,0.9237,0.9364,0.9354,0.9372,0.9386,0.9512,0.9513,0.9514,0.9474,0.9472,0.947,0,0,0,0,0,0,0.8764,0.8861,0.8883,0.8942,0.8998,0.9081,0.9105,0.9133,0.9187,0.9189,0.925,0.9267,0.932,0.9359,0.9346,0.9431,0.944,0.9445,0.9404,0.9403,0.9401,0.9391,0.9381,0,0,0,0,0,0.8759,0.8809,0.889,0.8935,0.8962,0.9028,0.906,0.9095,0.9155,0.9178,0.9232,0.9287,0.934,0.9373,0.9426,0.9478,0.9497,0.9497,0.9495,0.9494,0.9497,0.9527,0.9528,0.9517,0.9517,0.9517,0,0,0.875,0.8809,0.8837,0.8926,0.8973,0.9022,0.9048,0.9098,0.9135,0.9186,0.9245,0.9285,0.9351,0.9407,0.9434,0.9441,0.9504,0.9495,0.9493,0.9498,0.9528,0.9529,0.953,0.9518,0.9518,0.9518,0,0,0.8759,0.8808,0.8851,0.8897,0.8968,0.9012,0.9022,0.91,0.913,0.919,0.9229,0.9272,0.9361,0.9407,0.9441,0.9464,0.9491,0.9479,0.9472,0.95,0.9501,0.9502,0.951,0.9513,0.9482,0.9482,0.9482,0,0.8738,0.8815,0.8869,0.8918,0.8955,0.9004,0.9046,0.9088,0.9172,0.9196,0.9202,0.9315,0.9363,0.9429,0.9435,0.9461,0.9474,0.9471,0.9497,0.9498,0.95,0.9509,0.9511,0.948,0.948,0.9481,0.9481,0,0.8785,0.8837,0.8863,0.8944,0.8984,0.9029,0.9089,0.9123,0.9153,0.9196,0.9255,0.9314,0.9379,0.9397,0.9427,0.9467,0.9469,0.9485,0.9496,0.9498,0.9507,0.9511,0.9477,0.9478,0.9479,0.9479,0,0,0.8766,0.8875,0.8884,0.8921,0.9001,0.9042,0.9088,0.9153,0.918,0.9235,0.9275,0.9349,0.9364,0.9403,0.9438,0.9463,0.9477,0.9476,0.9478,0.9475,0.9525,0.9513,0.9516,0.9495,0.9496,0.9496,0.9519,0,0.8786,0.8874,0.8923,0.8989,0.9037,0.9083,0.9123,0.9176,0.9216,0.9261,0.9305,0.9356,0.9372,0.9396,0.9422,0.947,0.9488,0.9469,0.9532,0.9534,0.9516,0.9521,0.9509,0.9527,0.9523,0.9524,0.9524,0,0.8822,0.8877,0.8948,0.9022,0.9044,0.908,0.9142,0.9185,0.9245,0.9272,0.9315,0.935,0.9399,0.9405,0.9473,0.9459,0.9487,0.9514,0.9516,0.9525,0.953,0.953,0.9535,0.9537,0.953,0.953,0.9529,0,0.8801,0.8893,0.8947,0.8977,0.9065,0.9089,0.9126,0.9186,0.9221,0.9274,0.9298,0.9355,0.9387,0.9431,0.948,0.948,0.9543,0.9553,0.9567,0.9565,0.9579,0.9578,0.9589,0.9596,0.9596,0.9596,0.9596,0,0.8819,0.886,0.8939,0.8973,0.902,0.9075,0.912,0.9161,0.9213,0.9254,0.9296,0.9333,0.9396,0.944,0.9479,0.9529,0.9543,0.9566,0.9576,0.9563,0.956,0.9583,0.9583,0.9596,0.9596,0.9596,0.9596,0,0.8804,0.8859,0.8921,0.8999,0.9019,0.9051,0.9116,0.915,0.9191,0.9242,0.9257,0.9322,0.9377,0.943,0.9503,0.9528,0.9578,0.9591,0.9559,0.9564,0.9575,0.9574,0.9603,0.9609,0.961,0.961,0.961,0,0.8813,0.8846,0.8927,0.8958,0.8995,0.9044,0.908,0.9134,0.917,0.924,0.9264,0.9322,0.9371,0.9456,0.9509,0.9564,0.9579,0.9585,0.9588,0.9573,0.958,0.9577,0.9581,0.9584,0.9584,0.9584,0.9583,0,0.8822,0.8847,0.8898,0.8958,0.8999,0.9049,0.91,0.9122,0.9186,0.9223,0.928,0.9318,0.9392,0.9448,0.951,0.9547,0.9576,0.9582,0.9588,0.9576,0.9556,0.9567,0.9555,0.9581,0.9582,0.9582,0.9582,0.9582,0.882,0.8851,0.8913,0.8968,0.9012,0.9058,0.9093,0.9138,0.9187,0.9252,0.9281,0.9337,0.9395,0.948,0.9517,0.9561,0.9568,0.9577,0.958,0.9581,0.9578,0.9548,0.9572,0.9572,0.9573,0.9573,0.9573,0,0.8831,0.8873,0.8923,0.8993,0.9035,0.9058,0.9115,0.9149,0.9199,0.925,0.9298,0.9362,0.9416,0.9473,0.953,0.9555,0.9569,0.9568,0.9567,0.9575,0.9569,0.9558,0.9555,0.9555,0.9555,0.9555,0.9555,0.9555,0.8843,0.8897,0.8929,0.9004,0.9045,0.9102,0.9132,0.9175,0.9216,0.9286,0.9332,0.9368,0.9421,0.9483,0.9533,0.9548,0.9567,0.9562,0.9581,0.9574,0.9576,0.9577,0.9567,0.9566,0.9566,0.9584,0.9584,0.9584]}]]